Probability
0 2 4 2 0 1 3 3 3 2 1 1 1 1 1 1 0 0 0 0 0 0 0 0 0 0 0 0 1 1 1 1 1 1 0 0 0 0 0 0 0 0 0
1 2 3 2 1 2 3 3 3 3 2 2 2 2 2 2 1 1 1 1 0 1 1 0 0 0 0 1 2 2 2 2 2 1 0 0 0 0 0 0 0 0 0
1 2 3 4 3 2 3 3 3 3 3 3 3 3 3 3 3 2 2 1 1 1 2 1 1 1 0 1 2 2 2 2 1 1 0 0 0 0 0 0 0 0 0
1 1 3 4 2 1 2 3 3 3 3 4 4 3 3 3 3 3 3 2 1 1 2 2 2 1 0 1 1 1 1 1 0 0 0 0 0 0 0 0 1 1 1
0 1 2 2 1 0 1 2 3 4 4 5 5 4 3 3 3 3 3 2 1 0 1 1 1 1 0 0 0 0 0 0 0 0 0 0 0 0 0 0 1 2 2
0 1 2 2 1 2 2 2 2 4 5 6 5 4 3 3 3 3 3 3 2 1 0 0 0 0 0 0 0 0 0 0 0 0 0 0 0 0 0 1 2 2 2
1 1 3 3 3 4 4 3 2 3 5 5 4 3 3 2 3 3 3 3 2 1 1 1 0 0 0 0 0 0 0 0 0 0 0 0 0 0 1 2 3 2 1
1 1 3 4 4 4 4 3 3 3 4 4 4 3 1 1 1 2 2 3 2 2 2 2 1 0 0 0 0 0 0 0 0 0 0 0 0 0 1 2 3 2 1
2 2 3 4 3 3 3 3 2 2 3 4 3 2 1 0 0 1 1 1 2 2 2 2 1 0 0 0 0 0 0 0 0 0 0 0 0 0 0 1 2 1 0
2 3 3 2 2 3 3 2 1 1 2 2 2 1 0 0 0 0 0 0 1 1 1 1 0 0 0 0 0 0 0 0 0 0 0 0 0 0 0 0 0 0 0
1 1 1 1 1 2 2 1 0 0 1 1 1 0 0 0 0 0 0 0 0 0 0 0 0 0 0 0 0 0 0 0 0 0 0 0 0 0 0 0 0 0 1
0 0 0 0 0 1 1 0 0 0 0 0 0 0 0 0 0 0 0 0 0 0 0 0 0 0 0 0 0 0 0 0 0 0 0 0 0 0 0 0 0 1 2
0 0 0 0 0 0 0 0 0 0 0 0 0 0 0 0 0 0 0 0 0 0 0 0 0 0 0 0 0 0 0 0 0 0 0 0 0 0 0 0 0 1 2
0 0 0 0 0 0 0 0 0 0 0 0 0 0 0 0 0 0 0 0 0 0 0 1 1 1 0 0 0 0 0 0 0 0 0 0 0 0 0 0 0 1 2
0 0 0 0 0 0 0 0 0 0 0 0 0 0 0 0 0 0 0 0 0 0 0 1 2 1 0 0 0 0 0 0 0 0 0 0 0 0 0 0 0 0 1
0 0 0 0 0 0 0 0 0 0 0 0 1 0 0 0 0 0 0 0 0 0 0 1 1 0 0 0 0 0 0 0 0 0 0 0 0 0 0 0 0 0 0
0 0 0 0 0 0 0 0 0 0 0 0 0 0 0 0 0 0 0 1 0 0 0 0 0 0 0 0 0 0 0 0 0 0 0 0 0 0 0 0 0 0 0
0 0 0 0 0 0 0 0 0 0 0 0 0 0 0 0 0 0 0 0 0 0 0 0 0 0 0 0 0 0 0 0 0 0 0 0 0 0 0 0 0 0 0
0 0 0 0 0 0 0 0 0 0 0 0 0 0 0 0 0 0 0 0 0 0 0 0 0 0 0 0 0 0 0 0 0 0 0 0 0 0 0 0 0 0 0
0 0 0 0 0 0 0 0 0 0 0 0 0 0 0 0 0 0 0 0 0 0 0 0 0 0 0 0 0 0 0 0 0 0 0 0 0 0 0 0 0 0 0
0 0 0 0 0 0 0 0 0 0 0 0 0 0 0 0 0 0 0 0 0 0 0 0 0 0 0 0 0 0 0 0 0 0 0 0 0 0 0 0 0 0 0
0 0 0 0 0 0 0 0 0 0 0 0 0 0 0 0 0 0 0 0 0 0 0 0 0 0 0 0 0 0 0 0 0 0 0 0 0 0 0 0 0 0 0
0 0 0 0 0 0 0 0 0 0 0 0 0 0 0 0 0 0 0 0 0 0 0 0 0 0 0 0 0 0 0 0 0 0 0 0 0 0 0 0 0 0 0
0 0 0 0 0 0 0 0 0 0 0 0 0 0 0 0 0 0 0 0 0 0 0 0 0 0 0 0 0 0 0 0 0 0 0 0 0 0 0 0 0 0 0
0 0 0 0 0 0 0 0 0 0 0 0 0 0 0 0 0 0 0 0 0 0 0 0 0 0 0 0 0 0 0 0 0 0 0 0 0 0 0 0 0 0 0
0 0 0 0 0 0 0 0 0 0 0 0 0 0 0 0 0 0 0 0 0 0 0 0 0 0 0 0 0 0 0 0 0 0 0 0 0 0 0 0 0 0 0
Wind_Speed
6 8 8 9 11 11 11 10 10 9 10 10 10 10 10 9 9 9 9 9 9 10 10 10 9 10 10 10 10 10 9 9 9 9 9 10 10 10 10 9 7 8 10
7 9 8 8 11 11 11 10 10 9 9 9 10 10 10 9 9 9 9 9 10 10 10 10 10 10 10 10 9 10 10 10 10 8 8 9 9 9 9 9 8 7 10
8 9 10 8 10 11 11 10 10 9 9 9 9 9 9 9 9 9 9 10 10 10 10 10 10 10 9 9 9 9 9 10 9 7 4 5 8 9 9 9 9 9 9
8 8 9 8 9 10 11 11 10 9 9 9 9 9 9 9 9 9 9 9 9 9 9 10 9 9 9 9 9 9 9 9 7 4 4 5 6 8 8 8 8 8 9
7 7 8 7 9 10 11 11 10 9 9 9 9 9 9 9 9 9 9 9 9 9 9 9 9 8 8 8 8 9 8 8 5 3 5 5 5 7 7 7 7 8 8
7 7 7 6 8 9 9 10 10 9 9 9 9 9 9 9 9 9 9 9 9 9 8 8 8 7 7 8 8 8 7 5 3 4 4 4 4 7 6 6 6 6 7
6 6 7 6 7 8 8 9 9 9 9 8 8 8 8 9 9 8 8 8 8 8 8 8 7 7 7 7 7 7 6 4 3 4 4 4 5 5 5 5 5 5 6
5 5 6 6 6 7 7 7 7 8 8 8 8 8 8 8 8 8 8 8 8 8 7 7 7 7 6 6 6 6 5 2 3 3 3 4 5 4 4 4 4 5 5
4 4 4 5 6 6 6 7 6 7 7 7 7 7 8 8 8 7 7 7 7 7 7 7 6 6 6 5 5 5 4 3 2 3 3 3 4 4 3 4 4 5 5
3 2 3 4 4 5 6 6 6 6 7 8 8 8 9 8 8 7 6 7 7 6 6 6 6 6 5 5 5 4 3 0 2 2 1 3 4 3 4 4 4 4 4
2 1 1 3 3 4 5 5 6 6 7 7 7 9 7 5 6 5 6 6 6 6 6 5 5 5 4 4 4 3 0 0 1 1 1 3 2 3 3 3 3 3 3
1 1 1 1 2 3 3 4 4 4 5 5 5 6 4 4 4 4 7 6 6 5 5 4 4 4 2 2 3 1 0 1 0 0 1 2 1 2 2 2 2 1 2
2 1 1 1 2 3 3 3 2 2 3 4 5 5 4 4 3 3 3 4 4 4 3 3 3 2 2 1 1 1 1 0 0 0 1 2 1 1 1 2 1 1 1
2 1 1 2 2 2 3 3 3 3 3 3 4 5 4 3 3 3 2 3 2 2 2 1 1 1 2 2 1 1 1 1 1 0 1 2 1 1 1 0 0 0 1
2 2 2 1 2 3 3 3 3 3 4 4 4 4 4 3 3 3 2 2 2 2 2 2 2 2 2 1 1 1 1 1 1 1 0 1 1 2 2 1 0 0 0
3 3 2 2 2 2 3 3 3 3 3 4 4 4 5 4 3 3 3 2 2 2 2 2 2 2 1 1 1 1 1 2 2 2 1 0 0 1 2 2 2 1 0
4 3 3 3 3 3 3 3 2 3 3 3 3 4 5 4 4 3 3 3 2 2 2 2 2 1 1 1 1 1 1 2 2 2 1 1 0 0 1 1 1 2 1
4 4 3 2 3 3 3 3 2 2 3 3 3 4 5 5 4 4 3 3 3 2 2 2 2 2 2 2 1 1 1 1 2 2 1 1 1 1 1 1 2 2 2
4 4 3 3 3 3 3 3 2 2 2 2 2 3 4 4 4 4 3 3 3 3 2 2 2 2 2 2 1 1 1 2 2 2 1 1 1 1 1 1 2 2 3
3 3 2 2 2 2 2 2 2 2 2 1 2 2 3 3 4 3 3 3 3 3 3 3 3 2 2 1 1 1 2 2 2 2 2 1 1 1 1 1 1 1 2
1 1 1 1 1 2 2 2 2 2 2 2 2 2 2 2 3 3 3 3 3 3 3 3 3 3 2 1 2 1 1 2 2 1 1 1 1 1 1 1 1 1 1
1 1 1 1 2 2 2 2 1 2 2 1 2 2 2 2 2 3 3 3 4 3 3 4 3 2 2 2 2 2 2 2 2 1 1 1 1 1 1 1 1 1 1
2 1 1 1 1 2 2 2 2 2 2 1 1 1 2 2 2 3 3 3 3 4 4 4 4 4 3 3 2 2 2 2 1 1 1 1 1 2 1 1 2 2 2
3 2 1 1 1 1 2 2 3 2 2 2 1 1 1 2 2 2 3 3 3 3 3 4 4 4 5 4 3 3 3 2 2 1 1 1 1 2 2 2 2 2 2
3 2 1 0 0 0 1 2 2 2 1 1 1 2 1 1 2 2 2 2 3 3 3 3 4 4 4 4 3 2 3 2 3 3 3 2 2 2 2 3 2 2 2
3 3 2 1 1 0 0 1 2 2 2 1 1 1 1 1 1 2 2 2 3 2 3 3 3 4 4 4 4 3 3 3 3 3 4 3 3 2 2 2 2 2 2
Wind_Direction
166 161 157 161 156 152 147 142 137 133 131 131 128 127 122 120 117 116 116 113 111 108 104 102 100 95 90 85 81 78 79 79 78 80 82 82 79 79 77 74 74 79 77
157 162 158 163 159 156 151 146 141 139 136 134 130 127 123 119 117 115 113 110 109 108 105 101 96 93 89 85 81 80 79 77 76 73 79 85 82 80 79 74 66 76 80
155 160 161 162 159 157 153 148 146 144 141 138 133 129 125 121 119 116 113 110 108 106 104 101 96 92 90 86 84 83 82 79 75 68 75 90 89 84 82 79 77 81 83
156 161 162 154 158 156 153 150 150 148 147 143 136 132 128 123 121 118 115 111 109 106 104 100 97 94 93 90 86 84 82 79 70 66 82 80 84 85 86 82 80 82 83
153 159 153 152 158 157 155 153 151 151 151 146 139 133 129 125 122 118 115 112 112 109 106 103 99 96 94 91 87 85 83 77 66 79 80 77 81 85 84 84 81 79 83
152 157 151 153 153 152 155 155 153 154 151 147 141 135 131 126 120 116 114 110 108 106 107 105 102 98 95 93 89 85 83 77 86 83 79 73 76 85 84 89 90 88 88
150 156 153 142 144 148 151 154 153 152 151 146 143 138 134 128 124 118 114 112 110 107 106 106 102 98 97 93 90 85 79 61 76 81 75 72 68 71 83 90 96 98 98
150 156 151 136 139 142 146 153 155 155 153 147 141 137 134 129 125 121 117 115 113 108 106 104 104 101 98 92 88 83 71 53 86 81 79 76 65 71 85 93 101 97 99
135 146 154 161 158 145 136 131 131 135 135 133 130 128 123 118 115 114 115 117 115 113 109 107 107 103 99 93 88 80 68 35 87 85 75 73 62 66 82 95 98 98 93
104 131 149 160 163 157 145 126 123 125 124 121 119 115 111 109 109 108 118 116 116 114 111 108 107 103 97 93 86 77 67 332 86 88 79 75 64 66 66 79 85 95 94
93 116 154 163 162 160 154 141 138 130 125 125 123 117 122 132 127 121 107 104 110 112 112 113 111 107 104 101 88 76 82 75 61 54 70 66 72 73 69 65 69 85 89
183 192 173 182 171 164 160 158 163 157 151 148 141 137 140 136 128 123 108 104 106 108 114 114 115 127 149 134 116 141 143 76 21 31 69 61 68 79 82 73 63 82 88
217 202 203 190 182 176 169 165 163 160 155 156 150 148 147 142 138 140 140 132 131 133 133 130 147 158 150 140 146 147 114 61 323 352 71 56 37 71 90 96 73 73 74
232 240 236 207 191 187 178 167 165 164 161 161 159 156 156 154 154 157 159 152 148 147 149 163 163 156 156 158 168 168 177 255 283 313 51 43 0 350 330 164 52 203 98
231 247 242 230 210 198 189 178 170 175 174 167 163 164 166 163 162 165 160 156 157 156 170 175 177 169 169 163 176 206 232 275 276 276 334 49 343 333 323 298 336 331 105
243 247 245 229 226 205 193 187 185 178 180 174 169 171 172 171 166 166 163 162 169 174 178 184 191 191 188 182 204 242 269 280 280 283 281 250 20 332 309 313 317 286 241
248 246 241 229 224 209 199 196 192 183 179 181 175 174 177 176 175 173 171 171 176 174 177 181 187 201 204 197 226 257 275 283 284 289 294 297 312 23 344 328 330 308 294
257 245 236 227 224 212 201 196 190 183 178 184 180 177 181 180 179 178 176 173 171 173 181 187 196 202 209 210 224 253 267 273 280 286 285 291 313 327 352 353 327 313 296
260 247 232 223 220 213 204 190 177 163 168 176 181 181 183 183 181 182 179 171 171 177 183 190 207 218 217 214 214 242 252 258 268 270 266 280 297 318 315 348 338 327 305
269 253 235 220 215 206 191 171 152 147 153 161 171 178 178 179 182 182 179 173 176 180 183 194 201 210 225 228 228 245 261 258 248 250 255 255 282 305 303 300 293 324 325
311 292 249 216 205 186 180 174 169 175 163 169 167 155 168 172 176 183 180 178 187 191 194 199 206 201 209 213 233 238 241 235 236 236 245 241 247 255 278 288 292 294 293
325 312 261 211 189 191 197 185 181 164 157 162 155 157 159 165 170 182 184 189 193 195 195 197 203 207 200 207 233 244 243 220 195 239 243 242 250 246 256 276 287 291 282
336 310 281 237 196 192 180 159 141 134 124 144 163 172 170 176 178 174 185 191 195 202 203 204 208 214 213 208 226 240 246 243 274 194 229 250 262 255 260 271 275 288 284
342 326 297 263 204 185 171 175 174 178 185 186 181 179 166 185 189 185 186 191 194 201 213 214 217 223 220 217 213 239 265 296 259 252 212 220 255 260 264 263 261 264 275
358 353 340 353 98 145 168 182 194 201 197 169 159 161 171 187 198 200 198 198 202 206 212 214 219 225 224 226 217 210 222 236 249 247 252 244 241 242 256 256 250 247 251
13 12 6 25 41 20 167 190 204 203 183 169 177 184 189 192 208 218 211 208 212 217 218 220 221 224 229 230 226 214 209 215 218 228 243 253 263 258 250 250 245 247 253